RH
67 67 68 69 69 70 69 69 72 72 66 53 43 35 34 44 50 54 60 60 58 54 49 47 49 62 70 73 79 79 75 72 70 73 78 83 83 80 79 77 73 53 43 57 53 46 45 33 30 33 30 28
68 68 69 70 70 71 72 76 76 63 45 31 29 32 40 53 57 56 58 56 58 56 48 44 42 54 62 63 70 72 71 70 69 70 72 76 76 74 72 73 70 48 33 47 53 42 36 31 30 32 30 28
69 69 71 75 76 77 76 72 60 43 32 32 41 51 54 56 57 61 60 53 54 53 48 44 42 50 59 62 66 68 66 64 67 70 70 71 72 70 68 67 55 37 34 51 59 43 30 27 26 26 23 22
70 65 63 65 60 56 51 43 38 43 48 50 62 68 61 55 54 59 59 53 50 49 47 46 44 47 55 64 66 65 62 60 64 67 69 71 72 69 68 61 41 29 34 46 51 40 30 25 23 22 20 20
53 47 44 42 36 36 37 38 42 58 65 62 71 71 60 55 53 50 51 51 51 51 49 47 46 44 54 67 66 62 59 58 62 63 66 69 67 68 68 55 37 34 35 37 40 35 32 26 24 23 21 22
39 41 41 39 39 43 46 50 50 57 65 63 64 61 55 53 51 49 51 53 53 53 49 47 45 43 53 62 58 56 55 54 57 58 61 60 57 60 59 47 37 39 36 36 38 36 35 31 30 29 26 26
52 55 55 52 50 52 55 57 56 57 59 57 54 51 51 51 50 52 56 55 52 50 46 44 44 44 48 48 45 47 46 44 46 48 51 49 48 47 44 41 39 39 37 38 38 37 38 36 36 35 33 32
55 57 60 56 52 58 63 60 57 56 53 51 49 47 47 48 48 50 52 50 47 46 44 44 44 44 43 42 43 43 41 41 40 40 41 41 40 39 38 38 39 38 38 38 38 38 38 39 38 37 36 35
46 48 52 51 52 57 59 57 54 53 50 48 47 45 45 45 46 46 46 45 43 43 42 42 43 43 44 43 44 44 43 42 41 40 39 40 39 39 38 38 38 38 38 39 38 38 38 40 39 38 38 37
44 44 46 49 51 53 52 51 49 46 45 43 42 41 42 42 42 42 41 40 39 38 36 36 37 39 42 44 45 45 44 43 44 43 40 41 41 40 39 39 38 37 38 40 40 39 39 40 40 39 39 38
41 41 42 44 44 46 46 45 44 41 39 36 36 36 37 38 37 37 36 36 35 33 31 30 31 34 39 43 45 46 45 44 46 46 44 43 42 42 42 41 41 39 39 41 42 42 42 41 40 40 39 39
41 41 41 42 43 45 47 45 45 44 40 38 37 38 38 38 37 37 37 37 36 33 29 26 26 32 39 43 45 46 46 46 47 49 49 47 46 46 46 45 44 42 40 43 46 46 45 44 42 41 41 41
41 42 43 43 44 47 48 48 47 46 44 43 42 42 41 40 40 39 38 38 36 33 29 24 21 28 40 46 48 47 47 50 52 53 53 52 52 50 49 49 47 45 44 45 48 48 46 45 45 45 44 44
41 42 43 43 43 45 46 46 46 46 45 45 45 44 43 42 41 37 36 36 34 32 28 23 19 25 40 48 49 50 50 53 55 55 56 55 54 53 51 50 47 45 45 46 47 47 46 46 48 49 48 47
40 40 41 42 41 41 41 42 43 44 44 45 45 44 43 43 40 35 33 33 32 31 26 22 18 23 39 47 49 52 52 53 55 56 57 56 55 54 52 50 47 45 44 46 48 49 49 48 49 49 48 47
37 37 38 38 39 39 39 40 41 42 43 44 45 44 43 42 40 35 31 31 30 29 26 20 16 21 36 46 48 51 52 52 53 54 54 54 53 51 49 47 45 44 46 49 52 53 53 51 51 50 49 48
40 40 39 39 39 39 40 41 40 41 41 43 43 43 42 40 40 35 30 29 28 28 25 17 13 19 31 41 45 47 48 49 48 49 49 47 44 42 42 43 44 47 51 54 55 55 54 54 52 51 50 49
47 47 46 44 42 40 41 41 40 40 40 41 41 41 41 40 39 34 29 26 26 26 22 14 12 17 27 35 39 41 42 44 45 44 43 39 37 38 42 48 51 53 55 55 56 55 55 54 52 52 51 50
50 50 48 47 45 42 40 39 40 40 39 40 40 40 40 39 37 33 29 24 23 23 18 13 13 16 26 32 34 36 38 41 42 40 39 38 38 40 44 48 50 51 53 53 53 53 52 51 50 48 46 44
51 50 49 48 47 44 41 39 39 39 39 39 39 39 39 37 35 32 28 23 20 19 14 14 17 20 27 30 31 34 36 38 39 39 39 39 40 41 42 43 44 45 45 45 45 44 44 43 42 40 40 39
51 51 50 49 48 47 44 42 40 40 40 39 38 37 35 34 32 29 26 21 18 17 14 19 26 31 34 34 34 35 36 37 39 40 38 36 37 38 39 40 42 42 43 44 43 43 42 41 42 41 43 45
51 50 50 49 48 48 46 45 43 42 40 38 37 34 32 31 28 27 25 20 21 22 20 27 36 43 46 45 44 41 38 36 33 28 25 27 30 32 36 38 41 43 45 47 46 46 45 43 43 42 43 45
47 46 46 45 44 42 42 43 42 39 39 40 37 34 33 30 28 28 25 25 31 34 31 35 43 49 53 53 51 47 41 31 19 13 15 23 27 29 31 33 37 40 42 45 45 44 42 39 38 38 38 38
43 42 40 39 36 35 34 36 38 36 36 40 39 37 34 30 30 28 27 33 40 41 41 42 47 53 56 56 54 50 43 30 13 12 21 29 33 32 29 28 30 35 39 40 37 35 34 31 28 25 25 27
42 39 37 36 33 31 30 31 36 35 32 39 41 38 35 30 28 24 28 39 41 41 42 42 45 49 50 51 52 49 43 30 11 12 28 36 36 35 34 32 30 34 36 36 38 37 32 25 20 20 23 28
41 38 35 35 33 31 30 29 35 36 31 37 41 39 35 29 25 22 28 36 35 35 35 35 38 40 41 42 43 41 37 25 10 15 34 40 37 36 38 36 32 32 35 41 46 43 45 42 31 28 32 35
42 39 36 34 33 31 29 28 34 36 32 36 41 39 34 29 25 21 24 30 29 29 29 30 33 33 35 36 35 35 31 19 10 24 43 42 39 40 39 34 32 32 33 42 47 51 65 62 45 41 42 43
42 40 37 35 34 32 28 28 33 34 32 37 40 39 36 31 27 22 23 28 27 27 28 30 32 31 32 33 32 32 27 18 19 37 46 39 39 44 41 38 38 34 28 34 47 62 71 64 64 71 60 48
41 40 39 37 35 32 28 28 31 31 31 33 38 42 40 33 30 25 23 27 27 27 29 30 30 31 31 31 32 30 26 28 37 45 41 35 41 43 42 43 43 35 29 34 43 53 61 67 86 87 60 50
42 40 40 39 37 34 30 29 30 29 28 29 38 45 41 36 33 28 24 25 27 27 29 30 30 30 31 31 31 29 29 38 45 42 35 37 42 42 41 43 44 39 37 42 39 40 50 60 71 67 54 62
43 41 41 41 39 35 31 30 28 26 23 26 38 45 41 39 36 31 27 23 24 28 30 30 30 30 31 32 30 30 36 42 42 37 36 41 42 42 43 42 43 43 42 43 41 43 50 50 49 49 52 61
Wind_Speed
10 9 8 8 7 7 7 7 8 7 7 6 7 7 8 9 9 8 8 8 9 10 12 13 10 8 9 9 9 9 9 10 10 10 10 10 10 11 11 11 11 10 8 10 12 13 12 9 7 7 8 9
10 9 9 9 8 7 7 7 6 4 4 5 6 8 9 10 10 8 7 7 7 9 13 15 11 9 9 9 9 9 9 10 10 9 9 9 9 10 11 10 10 9 8 10 12 12 12 10 8 8 10 11
11 10 10 9 8 7 6 4 3 3 4 5 7 9 9 10 10 7 6 6 7 10 13 14 12 10 9 9 9 9 10 11 10 8 8 9 9 10 10 10 10 10 10 10 11 12 11 10 10 10 11 12
8 6 6 5 4 4 3 3 3 4 6 7 8 9 9 10 10 8 6 6 8 10 12 12 12 12 9 9 9 9 10 11 10 8 8 9 9 10 10 10 11 12 12 12 12 12 12 12 11 11 11 12
4 3 4 5 4 5 6 6 5 5 7 7 7 6 7 8 9 9 8 6 9 11 12 12 11 11 9 9 9 9 11 11 10 9 9 9 10 9 9 10 13 15 15 14 14 14 13 13 13 13 13 13
5 6 7 7 7 7 8 8 6 5 5 6 5 6 7 7 7 9 8 7 9 10 11 11 10 10 10 10 11 10 11 11 10 10 9 10 11 10 9 11 14 16 16 16 16 16 14 14 15 15 14 13
5 4 4 4 5 5 5 6 6 6 6 6 6 7 7 7 8 9 8 6 7 8 9 9 9 10 11 11 12 12 11 12 11 11 11 11 12 11 11 13 14 16 17 16 16 16 15 15 16 16 15 14
6 3 1 2 2 2 4 6 6 6 6 7 8 9 9 9 9 10 9 8 7 7 7 8 8 9 10 10 11 12 12 12 12 12 13 13 14 13 13 13 14 16 16 17 17 16 16 16 16 17 16 15
14 12 10 9 9 8 9 8 7 8 8 9 9 9 9 9 9 9 8 8 8 8 8 9 9 10 10 10 10 12 12 12 13 12 12 12 13 14 13 13 14 15 17 17 17 17 17 16 17 17 17 17
20 19 19 18 16 14 13 11 10 10 10 10 10 9 9 8 8 8 8 9 10 11 11 11 11 11 11 10 11 12 13 13 13 11 10 9 11 12 13 13 14 16 17 18 18 18 18 18 18 18 18 17
23 22 22 20 18 17 15 13 12 12 11 11 11 11 12 11 11 11 11 12 13 14 15 14 13 12 12 11 11 13 14 13 12 11 9 9 10 12 13 14 15 16 17 17 18 18 18 18 18 18 18 18
27 25 24 22 20 18 16 14 14 13 12 11 11 13 14 15 14 14 15 15 16 16 17 16 15 13 12 12 12 12 13 14 13 12 11 12 13 14 15 16 16 17 17 16 17 18 18 19 18 18 18 18
25 24 24 24 22 20 17 16 15 14 12 13 13 14 16 17 17 18 18 18 18 19 19 18 17 15 14 13 13 13 13 14 15 15 15 15 16 16 17 18 19 20 19 18 17 18 19 20 19 19 19 19
21 21 21 22 22 20 19 17 16 14 14 15 15 16 17 19 20 20 19 19 19 20 20 20 19 17 16 15 15 15 15 15 16 17 18 18 19 19 20 21 21 22 22 21 19 19 20 20 20 20 20 20
18 18 18 18 17 18 18 17 15 15 15 16 17 17 18 19 21 21 20 20 20 21 21 21 20 18 18 17 17 17 17 17 18 19 19 20 21 21 22 22 23 23 23 23 21 20 19 19 19 20 20 20
17 16 15 14 14 15 15 14 14 14 14 15 16 17 19 20 22 22 21 21 21 21 21 21 20 18 18 18 18 18 19 19 20 20 21 21 22 23 23 24 24 23 23 22 22 21 20 20 20 21 21 21
15 14 13 12 12 13 12 12 12 13 13 14 15 17 19 21 22 23 22 22 21 21 22 21 19 19 18 18 19 19 20 21 21 21 22 22 23 23 24 24 23 22 22 22 22 23 23 23 23 24 24 24
12 12 11 10 10 10 11 11 11 12 13 14 16 18 20 21 23 23 23 23 22 22 22 21 19 19 19 19 19 19 20 21 21 22 22 22 23 22 22 22 22 22 23 23 24 24 24 25 26 26 27 27
12 11 11 10 10 9 9 10 11 12 13 15 16 18 20 21 23 23 24 24 23 23 22 21 19 18 19 19 20 20 20 20 21 21 21 21 22 22 22 22 22 23 24 24 25 25 26 27 27 28 29 29
11 11 11 11 10 9 8 9 11 12 13 14 16 18 19 21 22 22 23 23 22 22 21 20 19 18 18 19 20 20 20 20 20 21 21 20 20 22 23 23 23 23 23 25 26 26 27 27 27 28 28 28
12 12 12 12 12 11 9 9 11 12 13 14 15 16 18 20 21 21 21 20 20 19 19 18 18 17 18 18 19 19 20 20 20 20 21 21 19 20 22 23 23 23 24 25 26 26 27 27 27 27 27 27
14 13 13 14 14 14 13 13 13 14 14 14 15 16 18 20 20 20 19 18 17 16 16 16 16 17 17 18 18 19 19 20 20 19 20 21 20 19 20 21 22 23 24 25 27 27 28 27 27 27 28 27
15 16 16 16 17 18 18 17 17 17 15 14 16 17 18 20 19 18 18 17 16 17 16 15 16 17 17 18 19 20 20 20 21 20 19 20 20 20 19 19 20 22 24 26 27 27 28 27 27 27 27 27
17 18 19 19 20 21 21 20 18 18 16 14 16 17 18 18 17 18 17 15 15 17 16 15 16 17 18 19 20 21 21 22 22 20 19 19 19 20 20 19 19 19 23 27 28 27 27 27 26 27 26 25
18 19 20 20 20 20 21 19 18 18 17 14 16 17 18 18 17 17 15 13 15 15 15 15 15 17 18 19 20 21 21 22 22 18 17 18 18 19 20 21 18 19 23 24 23 25 27 29 27 24 20 17
17 18 18 17 18 19 20 18 16 17 17 15 16 17 17 17 17 16 13 13 15 15 15 15 15 17 18 18 20 21 21 22 21 18 16 18 20 19 19 20 18 19 19 16 17 19 20 22 21 17 13 12
16 16 17 16 17 18 18 17 15 15 15 14 15 16 17 17 18 16 13 14 15 15 16 16 16 17 17 18 19 21 22 23 20 18 17 19 20 19 19 19 17 17 15 14 16 14 9 8 11 11 9 9
14 16 17 16 17 17 17 16 14 14 14 12 15 17 17 17 18 16 13 14 16 16 17 16 16 17 17 18 19 20 22 22 19 17 17 19 19 18 19 18 17 16 15 14 13 8 5 5 5 5 6 15
13 15 17 17 18 19 18 17 14 14 15 15 16 17 16 17 18 16 14 15 16 16 17 17 17 17 17 18 18 20 21 19 16 16 17 18 18 17 17 16 17 17 16 13 10 7 5 5 3 3 8 16
12 14 16 17 18 18 18 17 15 15 17 17 16 16 17 17 16 16 14 14 16 16 16 17 17 17 17 18 19 20 19 16 15 16 17 17 16 16 16 15 16 17 16 14 13 10 7 7 6 8 11 9
11 13 14 15 15 15 15 15 16 16 17 17 16 17 17 15 15 15 14 14 15 15 16 16 17 17 17 18 19 19 17 15 15 17 17 15 15 15 15 14 14 15 16 16 14 12 10 12 13 13 11 5
Wind_Direction
105 106 104 101 100 98 94 94 93 92 84 70 59 48 43 40 39 45 46 46 44 35 24 18 17 14 9 6 3 4 5 6 3 1 1 0 0 0 360 1 359 357 9 13 11 14 10 4 7 7 5 2
116 120 113 104 104 106 101 102 97 81 58 41 38 36 38 35 30 31 31 36 34 20 14 13 17 17 7 2 0 360 3 2 358 360 1 360 1 2 4 7 7 3 8 10 3 7 9 4 6 5 359 357
138 138 133 125 118 121 117 109 85 41 38 37 36 33 33 26 16 11 11 21 19 15 15 13 16 15 6 3 3 2 2 1 358 1 2 2 3 4 7 7 7 8 9 8 357 354 358 358 357 355 352 353
150 138 136 132 117 117 102 63 44 49 46 43 39 29 23 20 15 8 2 10 15 17 18 13 12 12 7 2 0 360 358 359 0 0 358 358 358 357 1 0 358 2 6 5 357 349 346 345 346 345 344 348
140 95 74 70 60 58 52 45 52 53 43 43 43 27 18 23 24 22 19 22 20 13 13 12 12 15 10 358 352 350 349 353 357 356 354 353 351 350 350 349 352 355 357 358 355 351 345 340 341 340 339 340
90 74 64 57 51 54 54 55 62 62 58 57 48 27 18 20 22 33 42 35 18 13 20 23 21 21 14 360 352 347 345 348 348 347 348 348 347 346 341 341 347 349 348 351 349 347 345 341 341 340 338 337
80 66 54 46 44 52 61 70 77 79 74 60 46 36 31 34 32 46 63 54 33 31 36 31 25 21 12 4 359 353 351 351 347 342 342 343 345 341 339 340 342 342 341 343 341 340 340 338 338 338 337 335
88 84 71 54 71 98 95 96 93 82 70 58 52 50 52 56 55 61 68 62 48 37 29 18 11 5 360 359 358 355 354 352 347 342 339 339 340 336 336 337 337 336 334 333 332 333 333 331 331 332 333 332
87 88 88 88 97 102 98 97 88 73 64 57 51 51 53 55 58 57 53 43 29 20 11 1 355 351 348 348 350 350 349 347 345 341 337 334 331 329 328 328 329 329 326 324 324 326 326 323 323 324 325 327
82 80 79 80 84 86 82 78 73 66 59 55 47 44 41 37 37 32 24 16 9 4 358 350 346 345 340 337 337 342 342 340 342 340 333 325 320 318 315 315 317 320 319 315 316 319 319 316 314 316 318 320
75 73 73 72 72 72 70 66 64 61 55 53 47 41 34 27 22 16 11 5 1 357 353 347 342 339 334 331 330 333 335 331 332 331 321 311 307 305 304 304 306 313 313 308 309 313 317 317 311 310 312 314
69 67 67 64 63 63 62 58 55 51 47 44 37 34 27 20 14 8 4 359 356 353 350 347 341 335 328 327 325 325 326 323 321 319 313 307 304 302 302 302 303 308 309 305 306 309 315 318 314 310 310 311
67 65 63 58 56 54 52 48 45 38 33 28 23 20 14 8 5 0 357 353 351 348 346 346 342 334 328 327 323 319 317 318 318 316 314 310 307 306 304 304 305 308 307 304 305 306 309 312 313 311 308 308
66 64 61 56 52 47 42 37 32 26 20 14 9 7 2 358 359 357 352 349 347 345 343 342 339 334 329 325 322 319 316 316 317 316 316 314 311 310 308 307 307 308 306 304 305 306 306 305 305 305 305 304
63 61 56 52 46 40 34 26 19 15 8 2 359 356 352 350 353 352 349 346 344 342 340 339 337 332 327 322 321 320 316 314 313 313 313 314 313 312 311 309 308 307 306 304 304 304 303 301 300 300 301 300
57 53 47 41 34 30 25 16 10 5 358 352 349 345 343 345 347 347 345 344 341 339 337 336 333 328 325 322 319 319 316 313 311 309 308 307 308 308 307 305 304 304 303 302 302 301 300 299 297 297 297 297
49 43 36 30 24 20 12 7 3 359 355 347 342 340 340 340 341 343 342 340 338 337 335 334 330 326 323 321 318 317 316 314 312 310 308 306 306 305 305 304 304 303 301 300 299 299 298 297 295 295 294 293
36 32 29 24 18 11 3 1 359 357 352 343 340 337 336 336 337 338 337 336 334 334 334 332 329 325 322 320 319 318 316 317 316 315 314 313 311 310 310 309 309 308 306 303 300 298 297 295 294 293 291 290
25 22 20 20 17 11 358 352 350 350 347 342 338 333 332 332 332 333 332 331 329 330 331 331 329 325 322 320 319 318 319 321 320 319 318 319 319 316 315 313 312 312 310 307 303 300 297 295 294 292 290 289
22 17 16 17 18 17 3 348 343 343 341 335 331 328 329 329 329 329 327 327 325 326 327 328 328 324 321 320 318 318 319 322 322 323 321 320 323 322 321 319 316 314 312 309 305 302 299 296 295 293 291 289
18 14 13 11 13 15 7 357 351 347 341 335 332 332 332 330 329 327 325 326 325 325 325 326 325 322 322 320 319 319 319 322 324 325 323 320 322 324 324 323 321 320 316 312 308 304 301 299 297 295 293 291
16 12 10 7 7 5 1 359 358 355 349 344 342 340 336 331 330 328 328 330 330 329 328 326 324 323 323 323 322 322 323 324 323 323 324 322 321 322 324 325 325 324 320 315 310 306 303 302 300 296 294 291
14 11 9 6 5 3 1 358 356 360 355 344 342 339 335 331 329 329 330 334 336 336 335 330 326 325 325 326 325 325 327 329 329 328 326 327 325 322 322 322 323 322 320 316 311 308 306 303 300 296 293 291
11 10 7 6 5 2 2 358 353 357 353 338 334 332 331 330 328 328 332 337 338 336 335 331 327 327 327 327 327 330 334 336 336 334 333 334 332 327 323 319 322 324 323 320 314 312 309 304 301 299 297 293
11 10 7 4 2 357 356 355 348 347 348 337 325 326 329 330 329 329 336 342 338 333 330 328 326 327 329 329 330 333 337 338 336 334 335 335 332 332 331 327 329 330 330 330 325 322 317 312 310 307 304 297
9 10 7 1 356 353 350 350 344 337 342 334 318 321 329 331 331 332 340 346 340 332 329 329 329 330 331 329 329 331 334 336 334 334 338 337 334 334 334 331 332 334 339 341 333 326 319 317 320 317 311 299
3 3 3 358 353 352 346 346 341 331 336 330 313 320 330 331 333 335 340 344 340 335 333 333 331 332 331 329 329 331 335 336 337 339 341 340 339 337 333 331 331 335 342 338 330 327 314 320 327 320 328 317
356 355 355 353 350 349 345 342 337 329 333 328 316 323 331 331 332 335 339 339 337 337 336 334 333 332 331 330 331 333 338 339 339 341 339 338 340 340 336 333 331 332 335 334 335 333 307 318 317 296 351 334
348 349 349 347 346 347 346 343 338 333 331 328 323 325 329 329 329 333 337 335 335 336 335 333 333 333 332 332 331 335 340 339 338 339 335 336 338 338 336 331 328 328 331 333 331 322 302 312 308 278 338 332
340 343 343 343 345 345 343 339 336 332 328 327 324 321 323 324 325 329 331 329 331 335 334 332 332 332 332 332 332 336 340 338 336 334 332 335 335 334 333 329 327 327 329 330 324 319 301 290 298 304 325 331
332 336 335 336 338 339 337 330 326 325 324 323 319 315 316 317 319 323 322 322 328 333 332 332 332 330 330 330 332 337 339 336 333 331 331 333 332 331 331 330 326 323 326 327 321 322 312 300 303 302 305 303